• In Hungary
  • List of Countries
  • For 7 days
  • Water Temperature
  • Satellite Maps
  • Weather Map
  • News
  • Weather Widgets
  • user-avatar
    Login

    Hourly Weather Oklahoma City

    Today, 21 June, Thursday

    Time Temperature Precipitation Wind Pressure Humidity
    00:00 +25°C° 0 mm 3 mps 726 mmHg 79%
    01:00 +25°C° 0 mm 3 mps 726 mmHg 80%
    02:00 +24°C° 0 mm 3 mps 726 mmHg 82%
    03:00 +24°C° 0.1 mm 3 mps 726 mmHg 80%
    04:00 +24°C° 0.1 mm 3 mps 727 mmHg 78%
    05:00 +24°C° 0.1 mm 3 mps 727 mmHg 76%
    06:00 +25°C° 0 mm 3 mps 727 mmHg 68%
    07:00 +27°C° 0 mm 3 mps 728 mmHg 61%
    08:00 +28°C° 0 mm 3 mps 728 mmHg 53%
    09:00 +30°C° 0 mm 3 mps 728 mmHg 47%
    10:00 +33°C° 0 mm 4 mps 728 mmHg 41%
    11:00 +35°C° 0 mm 4 mps 728 mmHg 36%
    12:00 +36°C° 0 mm 4 mps 727 mmHg 34%
    13:00 +36°C° 0 mm 4 mps 727 mmHg 32%
    14:00 +37°C° 0 mm 4 mps 726 mmHg 30%
    15:00 +36°C° 0 mm 4 mps 726 mmHg 33%
    16:00 +35°C° 0 mm 3 mps 725 mmHg 36%
    17:00 +34°C° 0 mm 3 mps 725 mmHg 39%
    18:00 +32°C° 0 mm 2 mps 725 mmHg 42%
    19:00 +31°C° 0 mm 2 mps 725 mmHg 44%
    20:00 +29°C° 0 mm 1 mps 725 mmHg 47%
    21:00 +28°C° 0 mm 2 mps 725 mmHg 50%
    22:00 +26°C° 0 mm 3 mps 725 mmHg 53%
    23:00 +25°C° 0 mm 3 mps 726 mmHg 56%

    Tomorrow, 22 June, Friday

    Time Temperature Precipitation Wind Pressure Humidity
    00:00 +24°C° 0 mm 3 mps 726 mmHg 59%
    01:00 +22°C° 0 mm 3 mps 726 mmHg 62%
    02:00 +21°C° 0 mm 2 mps 726 mmHg 65%
    03:00 +21°C° 0 mm 3 mps 726 mmHg 66%
    04:00 +20°C° 0 mm 3 mps 726 mmHg 67%
    05:00 +20°C° 0 mm 3 mps 726 mmHg 69%
    06:00 +22°C° 0 mm 3 mps 727 mmHg 62%
    07:00 +25°C° 0 mm 3 mps 727 mmHg 56%
    08:00 +27°C° 0 mm 3 mps 727 mmHg 49%
    09:00 +28°C° 0.1 mm 3 mps 727 mmHg 46%
    10:00 +29°C° 0.1 mm 2 mps 727 mmHg 43%
    11:00 +31°C° 0.1 mm 2 mps 727 mmHg 41%
    12:00 +32°C° 0.1 mm 2 mps 726 mmHg 39%
    13:00 +33°C° 0.1 mm 1 mps 726 mmHg 38%
    14:00 +34°C° 0.1 mm 1 mps 725 mmHg 37%
    15:00 +34°C° 0.2 mm 1 mps 725 mmHg 39%
    16:00 +35°C° 0.2 mm 2 mps 724 mmHg 41%
    17:00 +34°C° 0.2 mm 2 mps 723 mmHg 43%
    18:00 +31°C° 0.2 mm 3 mps 723 mmHg 50%
    19:00 +29°C° 0.2 mm 5 mps 723 mmHg 57%
    20:00 +27°C° 0.2 mm 6 mps 722 mmHg 64%
    21:00 +26°C° 3.3 mm 6 mps 722 mmHg 71%
    22:00 +24°C° 3.3 mm 6 mps 722 mmHg 78%
    23:00 +23°C° 3.3 mm 6 mps 722 mmHg 86%

    Day after tomorrow, 23 June, Saturday

    Time Temperature Precipitation Wind Pressure Humidity
    00:00 +23°C° 0.9 mm 6 mps 722 mmHg 86%
    01:00 +23°C° 0.9 mm 7 mps 721 mmHg 86%
    02:00 +23°C° 0.9 mm 8 mps 720 mmHg 87%
    03:00 +24°C° 0.1 mm 7 mps 720 mmHg 86%
    04:00 +24°C° 0.1 mm 6 mps 720 mmHg 85%
    05:00 +24°C° 0.1 mm 6 mps 720 mmHg 84%
    06:00 +28°C° 0 mm 7 mps 720 mmHg 74%
    07:00 +31°C° 0 mm 8 mps 720 mmHg 63%
    08:00 +34°C° 0 mm 10 mps 721 mmHg 53%
    09:00 +35°C° 0 mm 9 mps 721 mmHg 50%
    10:00 +37°C° 0 mm 8 mps 721 mmHg 47%
    11:00 +38°C° 0 mm 7 mps 721 mmHg 45%
    12:00 +38°C° 0.1 mm 7 mps 721 mmHg 46%
    13:00 +36°C° 0.1 mm 6 mps 721 mmHg 48%
    14:00 +36°C° 0.1 mm 5 mps 720 mmHg 49%
    15:00 +36°C° 0 mm 5 mps 721 mmHg 49%
    16:00 +35°C° 0 mm 5 mps 721 mmHg 49%
    17:00 +35°C° 0 mm 5 mps 721 mmHg 49%
    18:00 +33°C° 0 mm 5 mps 721 mmHg 56%
    19:00 +30°C° 0 mm 5 mps 722 mmHg 62%
    20:00 +28°C° 0 mm 5 mps 722 mmHg 68%
    21:00 +26°C° 0 mm 5 mps 723 mmHg 74%
    22:00 +25°C° 0 mm 5 mps 723 mmHg 80%
    23:00 +23°C° 0 mm 4 mps 723 mmHg 86%

    24 June, Sunday

    Time Temperature Precipitation Wind Pressure Humidity
    00:00 +22°C° 0 mm 4 mps 723 mmHg 88%
    01:00 +21°C° 0 mm 3 mps 723 mmHg 90%
    02:00 +20°C° 0 mm 3 mps 723 mmHg 92%
    03:00 +20°C° 0 mm 3 mps 724 mmHg 92%
    04:00 +20°C° 0 mm 2 mps 724 mmHg 92%
    05:00 +20°C° 0 mm 2 mps 724 mmHg 93%
    06:00 +22°C° 0 mm 3 mps 725 mmHg 85%
    07:00 +25°C° 0 mm 3 mps 726 mmHg 77%
    08:00 +27°C° 0 mm 4 mps 726 mmHg 69%
    09:00 +28°C° 0 mm 4 mps 726 mmHg 65%
    10:00 +30°C° 0 mm 4 mps 726 mmHg 62%
    11:00 +33°C° 0 mm 4 mps 726 mmHg 59%
    12:00 +33°C° 0 mm 5 mps 726 mmHg 59%
    13:00 +34°C° 0 mm 5 mps 726 mmHg 58%
    14:00 +35°C° 0 mm 5 mps 725 mmHg 58%
    15:00 +35°C° 0.2 mm 5 mps 725 mmHg 61%
    16:00 +34°C° 0.2 mm 6 mps 725 mmHg 63%
    17:00 +34°C° 0.2 mm 6 mps 725 mmHg 66%
    18:00 +33°C° 0.1 mm 7 mps 724 mmHg 65%
    19:00 +33°C° 0.1 mm 7 mps 724 mmHg 65%
    20:00 +32°C° 0.1 mm 8 mps 723 mmHg 65%
    21:00 +32°C° 0.3 mm 8 mps 724 mmHg 66%
    22:00 +31°C° 0.3 mm 8 mps 725 mmHg 68%
    23:00 +30°C° 0.3 mm 7 mps 725 mmHg 70%

    25 June, Monday

    Time Temperature Precipitation Wind Pressure Humidity
    00:00 +29°C° 0.2 mm 7 mps 725 mmHg 72%
    01:00 +29°C° 0.2 mm 6 mps 725 mmHg 74%
    02:00 +28°C° 0.2 mm 6 mps 724 mmHg 76%
    03:00 +28°C° 0 mm 6 mps 725 mmHg 76%
    04:00 +28°C° 0 mm 7 mps 726 mmHg 75%
    05:00 +27°C° 0 mm 7 mps 726 mmHg 75%
    06:00 +28°C° 0 mm 8 mps 726 mmHg 71%
    07:00 +29°C° 0 mm 8 mps 727 mmHg 66%
    08:00 +29°C° 0 mm 8 mps 727 mmHg 62%
    09:00 +32°C° 0 mm 9 mps 727 mmHg 56%
    10:00 +34°C° 0 mm 9 mps 727 mmHg 49%
    11:00 +36°C° 0 mm 10 mps 727 mmHg 42%
    12:00 +37°C° 0 mm 10 mps 727 mmHg 39%
    13:00 +38°C° 0 mm 10 mps 726 mmHg 37%
    14:00 +39°C° 0 mm 9 mps 726 mmHg 34%
    15:00 +39°C° 0 mm 9 mps 726 mmHg 35%
    16:00 +39°C° 0 mm 8 mps 726 mmHg 36%
    17:00 +39°C° 0 mm 8 mps 726 mmHg 37%
    18:00 +37°C° 0.2 mm 8 mps 726 mmHg 41%
    19:00 +34°C° 0.2 mm 9 mps 727 mmHg 44%
    20:00 +33°C° 0.2 mm 9 mps 727 mmHg 48%
    21:00 +32°C° 0.3 mm 9 mps 728 mmHg 52%
    22:00 +32°C° 0.3 mm 9 mps 728 mmHg 56%
    23:00 +31°C° 0.3 mm 8 mps 728 mmHg 60%

    26 June, Tuesday

    Time Temperature Precipitation Wind Pressure Humidity
    00:00 +29°C° 1 mm 8 mps 728 mmHg 65%
    01:00 +28°C° 1 mm 7 mps 728 mmHg 70%
    02:00 +28°C° 1 mm 6 mps 728 mmHg 75%
    03:00 +27°C° 0 mm 6 mps 729 mmHg 76%
    04:00 +27°C° 0 mm 7 mps 729 mmHg 77%
    05:00 +27°C° 0 mm 7 mps 729 mmHg 78%
    06:00 +28°C° 0 mm 7 mps 730 mmHg 73%
    07:00 +29°C° 0 mm 8 mps 730 mmHg 68%
    08:00 +31°C° 0 mm 8 mps 730 mmHg 63%
    09:00 +33°C° 0 mm 8 mps 730 mmHg 57%
    10:00 +35°C° 0 mm 8 mps 730 mmHg 51%
    11:00 +36°C° 0 mm 7 mps 730 mmHg 45%
    12:00 +38°C° 0 mm 7 mps 729 mmHg 42%
    13:00 +39°C° 0 mm 8 mps 729 mmHg 39%
    14:00 +40°C° 0 mm 8 mps 728 mmHg 36%
    15:00 +40°C° 0 mm 7 mps 728 mmHg 37%
    16:00 +39°C° 0 mm 7 mps 728 mmHg 38%
    17:00 +39°C° 0 mm 7 mps 728 mmHg 39%
    18:00 +38°C° 0 mm 7 mps 727 mmHg 41%
    19:00 +35°C° 0 mm 8 mps 727 mmHg 44%
    20:00 +34°C° 0 mm 9 mps 727 mmHg 46%
    21:00 +33°C° 0 mm 8 mps 727 mmHg 47%
    22:00 +33°C° 0 mm 8 mps 727 mmHg 47%
    23:00 +33°C° 0 mm 8 mps 728 mmHg 48%
    Show more